Regional Weather Roundup
Issued by NWS

Home | Current Version | Previous Version | Graphics & Text | Print | Product List | Glossary On
Versions: 1 2 3 4 5 6 7 8 9 10 11 12 13 14 15 16 17 18 19 20 21 22 23 24 25 26 27 28 29 30 31 32 33 34 35 36 37 38 39 40 41 42 43 44 45 46 47 48 49 50
000
ASUS44 KMEG 062110
RWRTN
TENNESSEE HOURLY STATE WEATHER ROUNDUP
NATIONAL WEATHER SERVICE MEMPHIS TN
400 PM CDT MON JUL 06 2015

TNZ002-004-019-021-049-052-054-088>092-062200-
WEST TENNESSEE

CITY           SKY/WX    TMP DP  RH WIND       PRES   REMARKS
MEMPHIS INTL   MOSUNNY   86  74  67 S10       30.05F HX  94
NWS MEMPHIS      N/A     87 N/A N/A MISG        N/A
JACKSON        PTSUNNY   86  73  65 SW10      30.05F HX  93
DYERSBURG        N/A    N/A N/A N/A MISG        N/A
PARIS          PTSUNNY   84  73  70 S9        30.05S HX  91
LEXINGTON      PTSUNNY   84  73  70 S9        30.05F HX  91
$$

TNZ008-025-027-028-033-062-065-066-062200-
NORTH MIDDLE TENNESSEE

CITY           SKY/WX    TMP DP  RH WIND       PRES   REMARKS
NASHVILLE      PTSUNNY   87  72  60 S8        30.08F HX  93
CLARKSVILLE    PTSUNNY   85  71  63 S7        30.05F HX  90
SMYRNA         MOSUNNY   89  72  57 S8        30.09F HX  96
COOKEVILLE     MOSUNNY   88  72  58 W5        30.11S HX  94
CROSSVILLE     MOSUNNY   81  65  58 SW7       30.15F
$$

TNZ061-075-076-078-094-096-097-062200-
SOUTH MIDDLE TENNESSEE

CITY           SKY/WX    TMP DP  RH WIND       PRES   REMARKS
FAYETTEVILLE   MOSUNNY   82  68  61 SW7       30.12S
TULLAHOMA      SUNNY     82  70  65 SW7       30.13F
WINCHESTER     SUNNY     82  70  65 VRB7      30.12F
MCMINNVILLE    SUNNY     84  70  61 SW7       30.12S
COLUMBIA       MOSUNNY   88  73  62 S6        30.07F HX  96
SHELBYVILLE    MOSUNNY   86  73  66 S8        30.11F HX  93
$$

TNZ017-018-042-046-047-062200-
NORTHEAST TENNESSEE

CITY           SKY/WX    TMP DP  RH WIND       PRES   REMARKS
TRI CITIES     PTSUNNY   82  64  54 W9        30.14F
ELIZABETHTON   PTCLDY    79  64  61 CALM      30.14F
$$

TNZ012-013-036-069-073-074-062200-
CENTRAL EAST TENNESSEE

CITY           SKY/WX    TMP DP  RH WIND       PRES   REMARKS
KNOXVILLE      PTSUNNY   84  67  56 SW7       30.10F
OAK RIDGE      LGT RAIN  83  69  62 CALM      30.12S
GATLINBURG     CLEAR     84  64  51 NW6       30.10F
MORRISTOWN     CLEAR     82  70  65 S7        30.13F
$$

TNZ083-085-099-062200-
SOUTHEAST TENNESSEE

CITY           SKY/WX    TMP DP  RH WIND       PRES   REMARKS
CHATTANOOGA    PTSUNNY   86  66  51 W13       30.10S
$$

SKY/WX REPORTED AS FAIR MEANS FEW OR NO CLOUDS BELOW
12 THOUSAND FEET.



USA.gov is the U.S. government's official web portal to all federal, state and local government web resources and services.